This demonstration page uses our WeatherBlox Daily Observations layout. Learn more.

Hourly Observations for September 25, 2016

Temp ( °F °C ) Dew Point ( °F °C ) Humidity (%) Winds ( mph kmh ) Pressure ( in mb ) Visibility ( mi km ) Precip ( " mm )
12:15 am 00:15 Clear 56 13.5 47 8.3 71 71 WNW 9 15 30.03 1017 10 16.09344 0 0
12:35 am 00:35 Clear 58 14.5 44 6.6 59 59 NNW 13 20 30.03 1017 10 16.09344 0 0
12:55 am 00:55 Clear 58 14.2 43 6.3 59 59 NNW 12 19 30.06 1018 10 16.09344 0 0
1:15 am 01:15 Clear 57 13.7 43 6.1 60 60 NNW 8 13 30.06 1018 10 16.09344 0 0
1:35 am 01:35 Clear 55 13 43 6 63 63 NNW 9 15 30.09 1019 10 16.09344 0 0
1:55 am 01:55 Clear 55 12.9 43 6 63 63 NNW 9 15 30.09 1019 10 16.09344 0 0
2:15 am 02:15 Clear 55 12.5 42 5.6 63 63 NNW 7 11 30.12 1020 10 16.09344 0 0
2:35 am 02:35 Clear 55 12.5 42 5.5 63 63 NNW 8 13 30.12 1020 10 16.09344 0 0
2:55 am 02:55 Clear 54 12.3 42 5.3 63 63 NW 9 15 30.12 1020 10 16.09344 0 0
3:15 am 03:15 Clear 54 12.1 42 5.4 64 64 NW 8 13 30.12 1020 10 16.09344 0 0
3:35 am 03:35 Clear 54 12.2 42 5.3 63 63 NNW 9 15 30.12 1020 10 16.09344 0 0
3:55 am 03:55 Clear 54 12.2 41 5.2 63 63 NW 8 13 30.12 1020 10 16.09344 0 0
4:15 am 04:15 Clear 54 12.2 41 5.2 63 63 NW 9 15 30.12 1020 10 16.09344 0 0
4:35 am 04:35 Clear 54 12.1 42 5.3 63 63 NW 10 17 30.12 1020 10 16.09344 0 0
4:55 am 04:55 Clear 54 12.2 41 5.2 63 63 NW 12 19 30.12 1020 10 16.09344 0 0
5:15 am 05:15 Clear 54 12 42 5.3 64 64 NW 9 15 30.12 1020 10 16.09344 0 0
5:35 am 05:35 Clear 53 11.7 42 5.3 65 65 NW 9 15 30.15 1021 10 16.09344 0 0
5:55 am 05:55 Clear 53 11.5 42 5.3 66 66 NW 9 15 30.15 1021 10 16.09344 0 0
6:15 am 06:15 Clear 52 11.3 42 5.4 67 67 NW 9 15 30.15 1021 10 16.09344 0 0
6:35 am 06:35 Clear 51 10.8 42 5.5 70 70 NW 9 15 30.15 1021 10 16.09344 0 0
6:55 am 06:55 Clear 51 10.6 42 5.5 71 71 NW 7 11 30.21 1023 10 16.09344 0 0
7:15 am 07:15 Clear 51 10.7 42 5.6 71 71 NW 8 13 30.21 1023 10 16.09344 0 0
7:35 am 07:35 Sunny 51 10.6 42 5.5 71 71 NW 7 11 30.21 1023 10 16.09344 0 0
7:55 am 07:55 Sunny 51 10.5 42 5.5 71 71 NNW 7 11 30.24 1024 10 16.09344 0 0
8:15 am 08:15 Sunny 52 10.9 42 5.6 70 70 NW 7 11 30.24 1024 10 16.09344 0 0
8:35 am 08:35 Sunny 53 11.9 42 5.8 67 67 NW 9 15 30.21 1023 10 16.09344 0 0
8:55 am 08:55 Sunny 55 12.7 43 6 64 64 NW 12 19 30.21 1023 10 16.09344 0 0
9:15 am 09:15 Sunny 57 13.7 43 6 60 60 NW 13 20 30.21 1023 10 16.09344 0 0
9:35 am 09:35 Sunny 58 14.4 43 5.9 57 57 NW 13 20 30.24 1024 10 16.09344 0 0
9:55 am 09:55 Sunny 59 15.1 42 5.6 53 53 NW 14 22 30.21 1023 10 16.09344 0 0
10:15 am 10:15 Sunny 60 15.7 42 5.7 52 52 NNW 14 22 30.21 1023 10 16.09344 0 0
10:35 am 10:35 Sunny 62 16.5 43 5.9 50 50 NNW 15 24 30.21 1023 10 16.09344 0 0
10:55 am 10:55 Sunny 63 17.2 42 5.5 46 46 NW 15 24 30.21 1023 10 16.09344 0 0
11:15 am 11:15 Sunny 64 17.9 40 4.4 41 41 NW 18 30 30.21 1023 10 16.09344 0 0
11:35 am 11:35 Sunny 65 18.2 39 4 39 39 NNW 14 22 30.21 1023 10 16.09344 0 0
11:55 am 11:55 Sunny 66 18.7 38 3.3 36 36 NNW 18 30 30.18 1022 10 16.09344 0 0
12:15 pm 12:15 Sunny 67 19.3 39 3.7 36 36 NW 17 28 30.18 1022 10 16.09344 0 0
12:35 pm 12:35 Sunny 67 19.5 38 3.4 35 35 NNW 15 24 30.18 1022 10 16.09344 0 0
12:55 pm 12:55 Sunny 68 19.9 38 3.2 33 33 NW 17 28 30.18 1022 10 16.09344 0 0
1:15 pm 13:15 Sunny 68 20.1 38 3.4 33 33 NNW 17 28 30.18 1022 10 16.09344 0 0
1:35 pm 13:35 Sunny 69 20.5 36 2.3 30 30 NNW 15 24 30.18 1022 10 16.09344 0 0
1:55 pm 13:55 Sunny 69 20.7 33 0.3 26 26 NW 20 31 30.18 1022 10 16.09344 0 0
2:15 pm 14:15 Sunny 70 21 31 -0.3 24 24 NNW 15 24 30.15 1021 10 16.09344 0 0
2:35 pm 14:35 Sunny 69 20.8 28 -2 22 22 NW 16 26 30.15 1021 10 16.09344 0 0
2:55 pm 14:55 Sunny 70 21.3 28 -2.5 20 20 NW 16 26 30.15 1021 10 16.09344 0 0
3:15 pm 15:15 Sunny 71 21.4 28 -2.3 20 20 NW 18 30 30.15 1021 10 16.09344 0 0
3:35 pm 15:35 Sunny 71 21.6 28 -2.3 20 20 NNW 17 28 30.12 1020 10 16.09344 0 0
3:55 pm 15:55 Sunny 70 21.3 27 -2.7 20 20 NNW 16 26 30.15 1021 10 16.09344 0 0
4:15 pm 16:15 Sunny 71 21.6 27 -3 19 19 N 16 26 30.12 1020 10 16.09344 0 0
4:35 pm 16:35 Sunny 71 21.5 24 -4.5 17 17 NW 17 28 30.15 1021 10 16.09344 0 0
4:55 pm 16:55 Sunny 70 21 23 -5.1 17 17 N 14 22 30.15 1021 10 16.09344 0 0
5:15 pm 17:15 Sunny 70 21.2 22 -5.4 16 16 NNW 14 22 30.15 1021 10 16.09344 0 0
5:35 pm 17:35 Sunny 70 21.1 22 -5.7 16 16 NNW 17 28 30.15 1021 10 16.09344 0 0
5:55 pm 17:55 Sunny 70 20.9 19 -7.1 15 15 NNW 14 22 30.15 1021 10 16.09344 0 0
6:15 pm 18:15 Sunny 69 20.5 19 -7.2 15 15 NNW 14 22 30.15 1021 10 16.09344 0 0
6:35 pm 18:35 Sunny 68 20.1 19 -7 15 15 N 12 19 30.18 1022 10 16.09344 0 0
6:55 pm 18:55 Sunny 67 19.2 20 -6.4 17 17 NNW 9 15 30.18 1022 10 16.09344 0 0
7:15 pm 19:15 Sunny 64 17.6 23 -5 21 21 NNW 6 9 30.21 1023 10 16.09344 0 0
7:35 pm 19:35 Clear 61 15.9 25 -3.8 26 26 NNW 3 6 30.21 1023 10 16.09344 0 0
7:55 pm 19:55 Clear 58 14.7 26 -3.5 28 28 NNW 6 9 30.24 1024 10 16.09344 0 0
8:15 pm 20:15 Clear 56 13.6 27 -2.6 33 33 NNW 6 9 30.27 1025 10 16.09344 0 0
8:35 pm 20:35 Clear 56 13.5 27 -3 32 32 NNW 5 7 30.27 1025 10 16.09344 0 0
8:55 pm 20:55 Clear 52 11.2 30 -1.3 42 42 NW 5 7 30.3 1026 10 16.09344 0 0
9:15 pm 21:15 Clear 51 10.3 31 -0.3 48 48 NW 6 9 30.3 1026 10 16.09344 0 0
9:35 pm 21:35 Clear 49 9.6 31 -0.4 50 50 NW 6 9 30.33 1027 10 16.09344 0 0
9:55 pm 21:55 Clear 50 9.9 30 -1 47 47 NW 6 9 30.33 1027 10 16.09344 0 0
10:15 pm 22:15 Clear 52 11 28 -2.5 39 39 N 7 11 30.33 1027 10 16.09344 0 0
10:35 pm 22:35 Clear 53 11.6 26 -3.2 36 36 NNW 9 15 30.33 1027 10 16.09344 0 0
10:55 pm 22:55 Clear 47 8.6 31 -0.7 52 52 NW 6 9 30.36 1028 10 16.09344 0 0
11:15 pm 23:15 Clear 46 8 31 -0.7 55 55 NNW 5 7 30.36 1028 10 16.09344 0 0
11:35 pm 23:35 Clear 48 8.7 29 -1.5 49 49 NNW 6 9 30.36 1028 10 16.09344 0 0
11:55 pm 23:55 Clear 46 7.6 31 -0.5 57 57 NNW 5 7 30.36 1028 10 16.09344 0 0

Powered by AerisWeather